Regional Weather Roundup
Issued by NWS Green Bay, WI

Home | Current Version | Previous Version | Graphics & Text | Print | Product List | Glossary Off
Versions: 1 2 3 4 5 6 7 8 9 10 11 12 13 14 15 16 17 18 19 20 21 22 23 24 25 26 27 28 29 30 31 32 33 34 35 36 37 38 39 40 41 42 43 44 45 46 47 48 49 50

643
ASUS43 KGRB 272200
RWRGRB

NORTH-CENTRAL AND NORTHEAST WISCONSIN REGIONAL WEATHER ROUNDUP
NATIONAL WEATHER SERVICE GREEN BAY WI
500 PM CDT WED JUL 27 2016

WIZ005-009-010>012-018-019-272300-
NORTH CENTRAL WISCONSIN

CITY           SKY/WX    TMP DP  RH WIND       PRES   REMARKS
IRONWOOD       CLOUDY    66  64  94 E5        30.00F
MANITOWISH WTR NOT AVBL
ARBOR VITAE    NOT AVBL
EAGLE RIVER    NOT AVBL
LAND O LAKES   NOT AVBL
RHINELANDER    CLOUDY    71  66  84 NE6       30.01F
PHILLIPS       DRIZZLE   68  67  96 N5        29.99S
ANTIGO         NOT AVBL
TOMAHAWK       PTSUNNY   72  65  79 E5        29.98F
MERRILL        PTSUNNY   77  70  77 E5        29.97F
$$

WIZ013-073-272300-
NORTHEAST WISCONSIN

CITY           SKY/WX    TMP DP  RH WIND       PRES   REMARKS
IRON MOUNTAIN  CLOUDY    72  64  76 N6        29.99S
MARINETTE      LGT RAIN N/A N/A N/A CALM      29.97
$$

WIZ017-030-035>037-045-272300-
CENTRAL WISCONSIN

CITY           SKY/WX    TMP DP  RH WIND       PRES   REMARKS
MEDFORD        NOT AVBL
WAUSAU         CLOUDY    78  68  71 E6        29.94F
MOSINEE        MOSUNNY   79  70  73 SE3       29.97
MARSHFIELD     TSTM      68  63  84 SW16G25   29.97R
WISC RAPIDS    CLOUDY    78  65  63 CALM      29.96F
STEVENS POINT  NOT AVBL
WAUPACA        NOT AVBL
SHAWANO        NOT AVBL
CLINTONVILLE   MOSUNNY   79  64  61 SE5       29.96S
WAUTOMA        CLOUDY    77  70  79 SE6       29.96F
$$

WIZ038-039-048-051-272300-
FOX VALLEY

CITY           SKY/WX    TMP DP  RH WIND       PRES   REMARKS
NWS GREEN BAY  CLOUDY    79  69  71 CALM      29.96S
APPLETON       PTSUNNY   79  63  57 VRB6      29.95F
OSHKOSH        CLOUDY    77  66  68 S7        29.96F
FOND DU LAC    CLOUDY    76  68  76 SE9       29.95F
$$

WIZ022-050-052-272300-
EAST CENTRAL WISCONSIN

CITY           SKY/WX    TMP DP  RH WIND       PRES   REMARKS
EPHRAIM        CLOUDY    73  67  83 CALM      29.97R
WASHINGTON ISL NOT AVBL
STURGEON BAY   CLOUDY    75  67  76 CALM      29.99R
MANITOWOC      NOT AVBL
SHEBOYGAN      LGT RAIN  71  67  87 W6        29.97F
$$

LMZ563-521-522-541>543-272300-
LAKESHORE

STATION/POSITION TIME  TEMP    WIND        PRES    VSBY  WAVE
                       AIR SEA DIR/SP/G                  HT/PER
                 (UTC) (F)     (DEG/KT/KT) (MB)    (MI)  (FT/S)
SHEBOYGAN LKSHOR 2100   69      CALM  /  2 1015.0F
KEWAUNEE LKSHORE 2100   69     170/  4/  5 1014.5R
ALGOMA MARINA    2113          220/ 10/ 11   N/A
NORTHPORT PIER   2100   74     330/  6/  9 1013.9R
N MID LAKE BUOY  2050   71 71  320/  4/  4 1013.6R         0
S GREEN BAY BUOY 2100   74 75  180/  8/ 10   N/A
SISTER BAY LKSHO 2121   75        CALM       N/A
CHAMBERS ISLAND  2100   77     220/  3/  5 1013.9F
MENOMINEE LKSHOR 2100   75     330/  4/  5 1013.3F
$$




USA.gov is the U.S. government's official web portal to all federal, state and local government web resources and services.